TimePST,TemperatureF,Dew PointF,Humidity,Sea Level PressureIn,VisibilityMPH,Wind Direction,Wind SpeedMPH,Gust SpeedMPH,PrecipitationIn,Events,Conditions,WindDirDegrees,DateUTC
12:53 AM,23.0,21.9,96,30.41,10.0,SE,10.4,-,N/A,,Clear,140,2013-02-02 08:53:00
1:53 AM,24.1,23.0,96,30.41,10.0,West,3.5,-,N/A,,Clear,270,2013-02-02 09:53:00
2:16 AM,21.9,19.9,92,30.38,2.5,Calm,Calm,-,N/A,,Partly Cloudy,0,2013-02-02 10:16:00
2:32 AM,21.9,21.9,100,30.38,5.0,SSW,5.8,-,N/A,,Partly Cloudy,200,2013-02-02 10:32:00
2:53 AM,23.0,23.0,100,30.41,1.5,SW,6.9,-,N/A,,Partly Cloudy,220,2013-02-02 10:53:00
2:57 AM,23.0,23.0,100,30.37,0.8,SW,4.6,-,N/A,,Mist,230,2013-02-02 10:57:00
3:19 AM,21.9,21.0,96,30.37,1.2,SSW,5.8,-,N/A,,Partly Cloudy,200,2013-02-02 11:19:00
3:22 AM,23.0,21.0,92,30.38,4.0,SSW,6.9,-,N/A,,Partly Cloudy,200,2013-02-02 11:22:00
3:29 AM,23.0,21.9,96,30.38,1.8,South,6.9,-,N/A,,Partly Cloudy,170,2013-02-02 11:29:00
3:42 AM,21.9,21.9,100,30.37,3.0,SE,3.5,-,N/A,,Partly Cloudy,130,2013-02-02 11:42:00
3:46 AM,21.9,21.0,96,30.37,1.8,Calm,Calm,-,N/A,,Partly Cloudy,0,2013-02-02 11:46:00
3:53 AM,19.9,19.9,100,30.42,1.0,Calm,Calm,-,N/A,,Mist,0,2013-02-02 11:53:00
4:09 AM,21.0,21.0,100,30.37,0.2,Calm,Calm,-,N/A,Fog,Light Freezing Fog,0,2013-02-02 12:09:00
4:21 AM,21.0,21.0,100,30.37,0.5,Calm,Calm,-,N/A,Fog,Light Freezing Fog,0,2013-02-02 12:21:00
4:38 AM,21.0,21.0,100,30.37,2.5,West,4.6,-,N/A,,Mostly Cloudy,280,2013-02-02 12:38:00
4:45 AM,21.0,21.0,100,30.37,10.0,WNW,4.6,-,N/A,,Mostly Cloudy,290,2013-02-02 12:45:00
4:53 AM,21.9,21.0,96,30.41,10.0,WNW,4.6,-,N/A,,Scattered Clouds,290,2013-02-02 12:53:00
5:53 AM,19.9,19.9,100,30.45,8.0,East,4.6,-,N/A,,Clear,90,2013-02-02 13:53:00
6:01 AM,19.9,19.0,96,30.37,1.8,East,5.8,-,N/A,,Clear,90,2013-02-02 14:01:00
6:09 AM,21.9,21.0,96,30.37,3.0,Calm,Calm,-,N/A,,Clear,0,2013-02-02 14:09:00
6:40 AM,21.9,21.9,100,30.38,0.5,Calm,Calm,-,N/A,Fog,Light Freezing Fog,0,2013-02-02 14:40:00
6:46 AM,23.0,21.0,92,30.38,1.2,Calm,Calm,-,N/A,,Partly Cloudy,0,2013-02-02 14:46:00
6:49 AM,21.2,21.2,100,30.39,4.0,NW,3.5,-,N/A,,Clear,320,2013-02-02 14:49:00
6:53 AM,21.9,21.0,96,30.46,8.0,WNW,4.6,-,N/A,,Clear,300,2013-02-02 14:53:00
7:15 AM,17.1,16.0,96,30.39,1.8,Calm,Calm,-,N/A,,Clear,0,2013-02-02 15:15:00
7:24 AM,18.0,17.1,96,30.39,0.5,Calm,Calm,-,N/A,Fog,Light Freezing Fog,0,2013-02-02 15:24:00
7:41 AM,17.1,16.0,96,30.39,0.2,Variable,3.5,-,N/A,Fog,Light Freezing Fog,0,2013-02-02 15:41:00
7:49 AM,17.6,15.8,93,30.40,1.0,SSW,3.5,-,N/A,,Mist,200,2013-02-02 15:49:00
7:51 AM,19.4,17.6,93,30.40,2.5,SSW,3.5,-,N/A,,Partly Cloudy,210,2013-02-02 15:51:00
7:53 AM,19.0,18.0,96,30.47,3.0,SW,3.5,-,N/A,,Partly Cloudy,220,2013-02-02 15:53:00
8:53 AM,27.0,27.0,100,30.47,10.0,SSE,4.6,-,N/A,,Clear,160,2013-02-02 16:53:00
9:53 AM,33.1,30.9,92,30.46,10.0,Calm,Calm,-,N/A,,Clear,0,2013-02-02 17:53:00
10:53 AM,42.1,34.0,73,30.46,10.0,NE,8.1,-,N/A,,Clear,40,2013-02-02 18:53:00
11:53 AM,44.1,34.0,68,30.41,10.0,East,3.5,-,N/A,,Clear,80,2013-02-02 19:53:00
12:53 PM,46.0,34.0,63,30.41,10.0,Calm,Calm,-,N/A,,Clear,0,2013-02-02 20:53:00
1:53 PM,46.9,34.0,61,30.38,10.0,Variable,3.5,-,N/A,,Clear,0,2013-02-02 21:53:00
2:53 PM,46.9,33.1,59,30.38,10.0,East,4.6,-,N/A,,Clear,100,2013-02-02 22:53:00
3:53 PM,46.9,32.0,56,30.38,10.0,East,3.5,-,N/A,,Clear,100,2013-02-02 23:53:00
4:53 PM,45.0,33.1,63,30.38,10.0,SSE,3.5,-,N/A,,Clear,150,2013-02-03 00:53:00
5:53 PM,37.9,28.9,70,30.40,10.0,South,5.8,-,N/A,,Clear,190,2013-02-03 01:53:00
6:53 PM,39.0,30.9,73,30.39,10.0,Calm,Calm,-,N/A,,Clear,0,2013-02-03 02:53:00
7:53 PM,37.9,30.9,76,30.40,10.0,NNE,4.6,-,N/A,,Clear,20,2013-02-03 03:53:00
8:53 PM,33.1,28.0,82,30.38,10.0,NW,4.6,-,N/A,,Clear,320,2013-02-03 04:53:00
9:53 PM,26.1,24.1,92,30.38,10.0,SSW,6.9,-,N/A,,Clear,210,2013-02-03 05:53:00
10:53 PM,26.1,23.0,88,30.36,10.0,NW,4.6,-,N/A,,Clear,310,2013-02-03 06:53:00
11:53 PM,24.1,21.9,91,30.35,10.0,Calm,Calm,-,N/A,,Clear,0,2013-02-03 07:53:00